Time,TemperatureF,DewpointF,PressureIn,WindDirection,WindDirectionDegrees,WindSpeedMPH,WindSpeedGustMPH,Humidity,HourlyPrecipIn,Conditions,Clouds,dailyrainin,SoftwareType,DateUTC
2013-02-14 00:06:00,42.2,39.0,30.22,NW,325,0.0,0.0,88,0.00,,,0.00,weatherlink.com 1.10,2013-02-14 08:06:00,
2013-02-14 00:21:00,42.0,39.0,30.22,NW,325,0.0,1.0,89,0.00,,,0.00,weatherlink.com 1.10,2013-02-14 08:21:00,
2013-02-14 00:36:00,41.7,39.0,30.23,NW,325,0.0,1.0,89,0.00,,,0.00,weatherlink.com 1.10,2013-02-14 08:36:00,
2013-02-14 00:51:00,41.5,39.0,30.22,NW,325,0.0,0.0,90,0.00,,,0.00,weatherlink.com 1.10,2013-02-14 08:51:00,
2013-02-14 01:06:00,41.5,39.0,30.22,NW,325,0.0,0.0,90,0.00,,,0.00,weatherlink.com 1.10,2013-02-14 09:06:00,
2013-02-14 01:21:00,41.2,39.0,30.22,NW,325,0.0,1.0,90,0.00,,,0.00,weatherlink.com 1.10,2013-02-14 09:21:00,
2013-02-14 01:36:00,41.0,38.0,30.22,NW,325,0.0,1.0,90,0.00,,,0.00,weatherlink.com 1.10,2013-02-14 09:36:00,
2013-02-14 01:51:00,40.7,38.0,30.22,NW,325,0.0,0.0,91,0.00,,,0.00,weatherlink.com 1.10,2013-02-14 09:51:00,
2013-02-14 02:06:00,40.6,38.0,30.23,NW,325,0.0,0.0,91,0.00,,,0.00,weatherlink.com 1.10,2013-02-14 10:06:00,
2013-02-14 02:21:00,40.3,38.0,30.23,NW,325,0.0,0.0,91,0.00,,,0.00,weatherlink.com 1.10,2013-02-14 10:21:00,
2013-02-14 02:36:00,40.3,38.0,30.22,NW,325,0.0,1.0,92,0.00,,,0.00,weatherlink.com 1.10,2013-02-14 10:36:00,
2013-02-14 02:51:00,40.1,38.0,30.22,NW,325,0.0,0.0,92,0.00,,,0.00,weatherlink.com 1.10,2013-02-14 10:51:00,
2013-02-14 03:06:00,39.8,38.0,30.21,NW,325,0.0,1.0,92,0.00,,,0.00,weatherlink.com 1.10,2013-02-14 11:06:00,
2013-02-14 03:21:00,40.0,38.0,30.21,NW,309,0.0,3.0,93,0.00,,,0.00,weatherlink.com 1.10,2013-02-14 11:21:00,
2013-02-14 03:36:00,39.8,38.0,30.21,NW,309,0.0,0.0,92,0.00,,,0.00,weatherlink.com 1.10,2013-02-14 11:36:00,
2013-02-14 03:52:00,39.7,38.0,30.21,NW,309,0.0,0.0,93,0.00,,,0.00,weatherlink.com 1.10,2013-02-14 11:52:00,
2013-02-14 04:07:00,39.6,38.0,30.21,NW,309,0.0,1.0,92,0.00,,,0.00,weatherlink.com 1.10,2013-02-14 12:07:00,
2013-02-14 04:22:00,39.4,37.0,30.21,NW,309,0.0,0.0,92,0.00,,,0.00,weatherlink.com 1.10,2013-02-14 12:22:00,
2013-02-14 04:37:00,39.3,38.0,30.21,NW,309,0.0,1.0,93,0.00,,,0.00,weatherlink.com 1.10,2013-02-14 12:37:00,
2013-02-14 04:52:00,39.4,38.0,30.21,NW,309,0.0,1.0,93,0.00,,,0.00,weatherlink.com 1.10,2013-02-14 12:52:00,
2013-02-14 05:07:00,39.3,38.0,30.21,NW,309,0.0,1.0,93,0.00,,,0.00,weatherlink.com 1.10,2013-02-14 13:07:00,
2013-02-14 05:22:00,39.1,37.0,30.21,NW,309,0.0,0.0,93,0.00,,,0.00,weatherlink.com 1.10,2013-02-14 13:22:00,
2013-02-14 05:37:00,39.1,37.0,30.21,NW,309,1.0,2.0,93,0.00,,,0.00,weatherlink.com 1.10,2013-02-14 13:37:00,
2013-02-14 05:52:00,39.2,37.0,30.21,NW,309,0.0,0.0,93,0.00,,,0.00,weatherlink.com 1.10,2013-02-14 13:52:00,
2013-02-14 06:07:00,39.1,38.0,30.21,NNW,341,0.0,3.0,94,0.00,,,0.00,weatherlink.com 1.10,2013-02-14 14:07:00,
2013-02-14 06:22:00,38.8,37.0,30.21,NNW,341,0.0,2.0,93,0.00,,,0.00,weatherlink.com 1.10,2013-02-14 14:22:00,
2013-02-14 06:37:00,38.6,37.0,30.22,NNE,26,1.0,3.0,94,0.00,,,0.00,weatherlink.com 1.10,2013-02-14 14:37:00,
2013-02-14 06:52:00,38.6,37.0,30.22,NNE,26,0.0,1.0,94,0.00,,,0.00,weatherlink.com 1.10,2013-02-14 14:52:00,
2013-02-14 07:07:00,38.5,37.0,30.22,NNE,26,0.0,1.0,94,0.00,,,0.00,weatherlink.com 1.10,2013-02-14 15:07:00,
2013-02-14 07:22:00,38.8,37.0,30.22,NNE,26,0.0,2.0,94,0.00,,,0.00,weatherlink.com 1.10,2013-02-14 15:22:00,
2013-02-14 07:37:00,39.5,38.0,30.23,NNE,26,0.0,3.0,94,0.00,,,0.00,weatherlink.com 1.10,2013-02-14 15:37:00,
2013-02-14 07:52:00,41.2,40.0,30.23,NNE,27,0.0,3.0,95,0.00,,,0.00,weatherlink.com 1.10,2013-02-14 15:52:00,
2013-02-14 08:07:00,43.0,41.0,30.23,NNE,27,0.0,1.0,94,0.00,,,0.00,weatherlink.com 1.10,2013-02-14 16:07:00,
2013-02-14 08:22:00,45.0,43.0,30.24,NNE,27,0.0,3.0,93,0.00,,,0.00,weatherlink.com 1.10,2013-02-14 16:22:00,
2013-02-14 08:37:00,47.7,45.0,30.24,NE,40,1.0,3.0,89,0.00,,,0.00,weatherlink.com 1.10,2013-02-14 16:37:00,
2013-02-14 08:52:00,49.9,45.0,30.24,NE,40,0.0,1.0,84,0.00,,,0.00,weatherlink.com 1.10,2013-02-14 16:52:00,
2013-02-14 09:07:00,53.0,46.0,30.24,NE,40,1.0,1.0,77,0.00,,,0.00,weatherlink.com 1.10,2013-02-14 17:07:00,
2013-02-14 09:22:00,56.1,46.0,30.24,NE,40,1.0,2.0,68,0.00,,,0.00,weatherlink.com 1.10,2013-02-14 17:22:00,
2013-02-14 09:37:00,59.2,44.0,30.23,ENE,74,1.0,3.0,58,0.00,,,0.00,weatherlink.com 1.10,2013-02-14 17:37:00,
2013-02-14 09:52:00,61.3,42.0,30.23,East,81,5.0,7.0,49,0.00,,,0.00,weatherlink.com 1.10,2013-02-14 17:52:00,
2013-02-14 10:07:00,62.1,41.0,30.22,SE,144,4.0,5.0,46,0.00,,,0.00,weatherlink.com 1.10,2013-02-14 18:07:00,
2013-02-14 10:22:00,61.5,40.0,30.23,NNE,33,3.0,7.0,45,0.00,,,0.00,weatherlink.com 1.10,2013-02-14 18:22:00,
2013-02-14 10:37:00,62.9,40.0,30.23,ENE,65,2.0,4.0,44,0.00,,,0.00,weatherlink.com 1.10,2013-02-14 18:37:00,
2013-02-14 10:53:00,63.5,40.0,30.23,NE,56,1.0,4.0,43,0.00,,,0.00,weatherlink.com 1.10,2013-02-14 18:53:00,
2013-02-14 11:08:00,64.7,40.0,30.22,SE,144,0.0,6.0,40,0.00,,,0.00,weatherlink.com 1.10,2013-02-14 19:08:00,
2013-02-14 11:23:00,65.1,40.0,30.21,SE,132,3.0,9.0,40,0.00,,,0.00,weatherlink.com 1.10,2013-02-14 19:23:00,
2013-02-14 11:38:00,64.7,39.0,30.21,ESE,117,3.0,9.0,39,0.00,,,0.00,weatherlink.com 1.10,2013-02-14 19:38:00,
2013-02-14 11:53:00,64.8,39.0,30.21,NNE,19,3.0,7.0,39,0.00,,,0.00,weatherlink.com 1.10,2013-02-14 19:53:00,
2013-02-14 12:08:00,65.5,40.0,30.21,ENE,69,5.0,7.0,39,0.00,,,0.00,weatherlink.com 1.10,2013-02-14 20:08:00,
2013-02-14 12:23:00,66.0,40.0,30.20,NE,47,5.0,8.0,39,0.00,,,0.00,weatherlink.com 1.10,2013-02-14 20:23:00,
2013-02-14 12:38:00,65.7,40.0,30.20,North,5,3.0,6.0,39,0.00,,,0.00,weatherlink.com 1.10,2013-02-14 20:38:00,
2013-02-14 12:53:00,66.3,40.0,30.18,ENE,73,4.0,7.0,39,0.00,,,0.00,weatherlink.com 1.10,2013-02-14 20:53:00,
2013-02-14 13:08:00,66.3,40.0,30.18,NNE,22,4.0,7.0,39,0.00,,,0.00,weatherlink.com 1.10,2013-02-14 21:08:00,
2013-02-14 13:23:00,66.8,41.0,30.18,East,80,2.0,6.0,39,0.00,,,0.00,weatherlink.com 1.10,2013-02-14 21:23:00,
2013-02-14 13:38:00,66.9,40.0,30.17,ESE,121,4.0,8.0,38,0.00,,,0.00,weatherlink.com 1.10,2013-02-14 21:38:00,
2013-02-14 13:53:00,67.6,41.0,30.16,NE,54,1.0,5.0,38,0.00,,,0.00,weatherlink.com 1.10,2013-02-14 21:53:00,
2013-02-14 14:08:00,68.1,41.0,30.15,North,9,1.0,6.0,38,0.00,,,0.00,weatherlink.com 1.10,2013-02-14 22:08:00,
2013-02-14 14:23:00,68.4,41.0,30.15,NE,47,4.0,6.0,37,0.00,,,0.00,weatherlink.com 1.10,2013-02-14 22:23:00,
2013-02-14 14:38:00,68.5,42.0,30.15,East,82,1.0,7.0,38,0.00,,,0.00,weatherlink.com 1.10,2013-02-14 22:38:00,
2013-02-14 14:53:00,69.0,41.0,30.15,NNW,343,3.0,6.0,36,0.00,,,0.00,weatherlink.com 1.10,2013-02-14 22:53:00,
2013-02-14 15:08:00,69.0,41.0,30.15,NW,323,2.0,5.0,36,0.00,,,0.00,weatherlink.com 1.10,2013-02-14 23:08:00,
2013-02-14 15:23:00,69.5,41.0,30.15,NNE,15,2.0,5.0,35,0.00,,,0.00,weatherlink.com 1.10,2013-02-14 23:23:00,
2013-02-14 15:38:00,68.9,40.0,30.14,ENE,58,3.0,5.0,35,0.00,,,0.00,weatherlink.com 1.10,2013-02-14 23:38:00,
2013-02-14 15:53:00,68.9,40.0,30.14,ENE,74,3.0,5.0,35,0.00,,,0.00,weatherlink.com 1.10,2013-02-14 23:53:00,
2013-02-14 16:08:00,68.6,40.0,30.14,NW,325,0.0,4.0,36,0.00,,,0.00,weatherlink.com 1.10,2013-02-15 00:08:00,
2013-02-14 16:23:00,68.2,41.0,30.14,NE,42,0.0,5.0,38,0.00,,,0.00,weatherlink.com 1.10,2013-02-15 00:23:00,
2013-02-14 16:38:00,68.2,41.0,30.14,NNE,18,1.0,3.0,38,0.00,,,0.00,weatherlink.com 1.10,2013-02-15 00:38:00,
2013-02-14 16:53:00,68.8,42.0,30.14,NNE,13,1.0,2.0,38,0.00,,,0.00,weatherlink.com 1.10,2013-02-15 00:53:00,
2013-02-14 17:08:00,68.1,42.0,30.14,NNE,13,0.0,1.0,39,0.00,,,0.00,weatherlink.com 1.10,2013-02-15 01:08:00,
2013-02-14 17:23:00,66.4,43.0,30.14,NNE,13,0.0,1.0,43,0.00,,,0.00,weatherlink.com 1.10,2013-02-15 01:23:00,
2013-02-14 17:38:00,63.8,44.0,30.15,NNE,13,0.0,3.0,48,0.00,,,0.00,weatherlink.com 1.10,2013-02-15 01:38:00,
2013-02-14 17:53:00,61.9,44.0,30.14,NNE,13,1.0,2.0,52,0.00,,,0.00,weatherlink.com 1.10,2013-02-15 01:53:00,
2013-02-14 18:08:00,60.4,44.0,30.15,NNE,13,1.0,1.0,55,0.00,,,0.00,weatherlink.com 1.10,2013-02-15 02:08:00,
2013-02-14 18:23:00,59.0,44.0,30.15,NNE,13,0.0,0.0,57,0.00,,,0.00,weatherlink.com 1.10,2013-02-15 02:23:00,
2013-02-14 18:38:00,57.7,43.0,30.16,NNE,13,0.0,0.0,59,0.00,,,0.00,weatherlink.com 1.10,2013-02-15 02:38:00,
2013-02-14 18:53:00,56.3,43.0,30.16,NNE,13,0.0,0.0,62,0.00,,,0.00,weatherlink.com 1.10,2013-02-15 02:53:00,
2013-02-14 19:08:00,55.3,43.0,30.16,NNE,13,0.0,0.0,64,0.00,,,0.00,weatherlink.com 1.10,2013-02-15 03:08:00,
2013-02-14 19:23:00,54.6,43.0,30.16,NNE,13,0.0,1.0,66,0.00,,,0.00,weatherlink.com 1.10,2013-02-15 03:23:00,
2013-02-14 19:38:00,53.7,43.0,30.17,NNE,13,0.0,1.0,68,0.00,,,0.00,weatherlink.com 1.10,2013-02-15 03:38:00,
2013-02-14 19:53:00,52.9,43.0,30.17,NNE,13,3.0,3.0,69,0.00,,,0.00,weatherlink.com 1.10,2013-02-15 03:53:00,
2013-02-14 20:08:00,52.3,43.0,30.17,NNE,13,2.0,3.0,71,0.00,,,0.00,weatherlink.com 1.10,2013-02-15 04:08:00,
2013-02-14 20:23:00,52.0,43.0,30.17,ESE,103,2.0,4.0,71,0.00,,,0.00,weatherlink.com 1.10,2013-02-15 04:23:00,
2013-02-14 20:38:00,51.7,43.0,30.18,ESE,113,1.0,2.0,72,0.00,,,0.00,weatherlink.com 1.10,2013-02-15 04:38:00,
2013-02-14 20:53:00,51.2,43.0,30.18,ESE,113,0.0,1.0,73,0.00,,,0.00,weatherlink.com 1.10,2013-02-15 04:53:00,
2013-02-14 21:08:00,50.4,42.0,30.18,ESE,113,0.0,0.0,74,0.00,,,0.00,weatherlink.com 1.10,2013-02-15 05:08:00,
2013-02-14 21:23:00,49.7,42.0,30.18,ESE,113,0.0,1.0,75,0.00,,,0.00,weatherlink.com 1.10,2013-02-15 05:23:00,
2013-02-14 21:38:00,49.2,42.0,30.18,ESE,113,0.0,1.0,77,0.00,,,0.00,weatherlink.com 1.10,2013-02-15 05:38:00,
2013-02-14 21:53:00,49.2,42.0,30.18,ESE,113,0.0,1.0,76,0.00,,,0.00,weatherlink.com 1.10,2013-02-15 05:53:00,
2013-02-14 22:08:00,49.9,42.0,30.18,ESE,113,0.0,2.0,74,0.00,,,0.00,weatherlink.com 1.10,2013-02-15 06:08:00,
2013-02-14 22:23:00,50.3,42.0,30.18,SE,137,2.0,3.0,73,0.00,,,0.00,weatherlink.com 1.10,2013-02-15 06:23:00,
2013-02-14 22:39:00,50.3,42.0,30.18,South,188,0.0,2.0,73,0.00,,,0.00,weatherlink.com 1.10,2013-02-15 06:39:00,
2013-02-14 22:54:00,49.8,42.0,30.19,SE,138,1.0,2.0,74,0.00,,,0.00,weatherlink.com 1.10,2013-02-15 06:54:00,
2013-02-14 23:24:00,48.4,42.0,30.19,East,98,3.0,3.0,77,0.00,,,0.00,weatherlink.com 1.10,2013-02-15 07:24:00,
2013-02-14 23:39:00,47.7,42.0,30.19,NE,44,0.0,3.0,79,0.00,,,0.00,weatherlink.com 1.10,2013-02-15 07:39:00,
2013-02-14 23:54:00,47.0,41.0,30.20,NE,51,0.0,2.0,80,0.00,,,0.00,weatherlink.com 1.10,2013-02-15 07:54:00,